User: anonymous   Login
Location: Unspecified
(0.0000°N, 0.0000°E)
Time: 06:46:30
(UTC+00:00)
Language:

N. Korean satellite - Orbit

View from above orbital plane
View from above orbital plane
View from above satellite
View from above satellite

Ground track
Ground track

The orbit data is extracted from the following two-line orbital elements,

1 39026U 12072A   17147.60863999 +.00001424 +00000-0 +58122-4 0  9995
2 39026 097.2243 166.1571 0038855 249.0732 110.6345 15.25377598246792
Epoch (UTC): 27 May 2017 14:36:26
Eccentricity: 0.0038855
inclination: 97.2243°
perigee height: 463 km
apogee height: 516 km
right ascension of ascending node: 166.1571°
argument of perigee: 249.0732°
revolutions per day: 15.25377598
mean anomaly at epoch: 110.6345°
orbit number at epoch: 24679

The dashed part of the orbit path shows where the satellite is in the earth's shadow,  

DLR